sat.trackr.live / text

‹ back to catalog

STARLINK-31756

NORAD 61517 · 2024-183J

PAYLOAD ACTIVE UNKNOWN

§ Identity

Operator
Country
US
Launch date
2024-10-15
Launch site
AFETR
Launch vehicle
Mass (kg)
RCS (m²)

Purposes: comms

External: N2YO · Heavens-Above · Gunter

§ Orbital elements

Epoch: 2026-09-21T16:49:10.529184Z

Period
93.85 min
Inclination
53.1600°
Eccentricity
0.0000808
Mean motion
15.34439740 rev/d
Perigee alt
462.0 km
Apogee alt
463.1 km
Semi-major
6,840.7 km
B*
-2.9944e-4
RAAN
309.7472°
Arg perigee
69.9967°
Mean anomaly
290.1122°
Rev number
10,969

§ Raw data

STARLINK-317561 61517U 24183J   26264.70081631 -.00010492  00000+0 -29944-3 0  99922 61517  53.1600 309.7472 0000808  69.9967 290.1122 15.34439740109693

JSON: /api/v1/satellites/61517 · /tle

For live sub-satellite position, see the globe view (requires WebGL).

§ Visibility from observer

Set your observer location to see the next 7 days of passes ≥ 10°. The values pass through the URL so the page stays shareable.

No JS? Fill the form by hand. The geolocation button needs JavaScript.